�������l�o���
Date,Time,MP-1(��Sv/h),MP-2(��Sv/h),MP-3(��Sv/h),MP-4(��Sv/h),MP-5(��Sv/h),MP-6(��Sv/h),MP-7(��Sv/h),MP-8(��Sv/h),����,����(m/s),���J
2014/12/01,00:00,1.978,3.560,3.875,3.512,3.698,1.245,1.907,2.155,��,3.1,��
2014/12/01,00:10,1.980,3.558,3.885,3.515,3.697,1.242,1.907,2.153,��,4.1,��
2014/12/01,00:20,1.978,3.563,3.887,3.518,3.693,1.242,1.905,2.155,��,3.9,�L
2014/12/01,00:30,1.977,3.557,3.878,3.515,3.692,1.243,1.908,2.155,��,4.0,��
2014/12/01,00:40,1.978,3.558,3.880,3.517,3.692,1.245,1.905,2.155,��,3.1,��
2014/12/01,00:50,1.978,3.560,3.878,3.517,3.692,1.242,1.908,2.157,��,2.7,�L
2014/12/01,01:00,1.977,3.555,3.882,3.517,3.697,1.245,1.905,2.155,��,3.8,�L
2014/12/01,01:10,1.978,3.560,3.878,3.513,3.692,1.242,1.907,2.152,��,4.6,�L
2014/12/01,01:20,1.977,3.557,3.877,3.513,3.688,1.243,1.908,2.153,��,4.6,�L
2014/12/01,01:30,1.977,3.555,3.873,3.515,3.683,1.242,1.905,2.152,��,4.6,�L
2014/12/01,01:40,1.977,3.552,3.872,3.510,3.678,1.243,1.903,2.152,��,3.5,�L
2014/12/01,01:50,1.977,3.550,3.865,3.507,3.670,1.243,1.905,2.150,��,3.4,�L
2014/12/01,02:00,1.977,3.543,3.858,3.503,3.667,1.243,1.907,2.148,��,3.3,�L
2014/12/01,02:10,1.977,3.537,3.852,3.498,3.665,1.243,1.902,2.147,��,3.3,�L
2014/12/01,02:20,1.975,3.532,3.855,3.500,3.665,1.240,1.903,2.148,��,3.4,�L
2014/12/01,02:30,1.972,3.533,3.855,3.503,3.660,1.238,1.903,2.148,��,3.4,�L
2014/12/01,02:40,1.977,3.527,3.855,3.502,3.660,1.237,1.903,2.148,��,2.6,�L
2014/12/01,02:50,1.977,3.525,3.848,3.500,3.662,1.240,1.902,2.150,��,1.7,�L
2014/12/01,03:00,1.977,3.525,3.848,3.500,3.658,1.242,1.902,2.150,��,2.2,�L
2014/12/01,03:10,1.973,3.523,3.850,3.498,3.655,1.242,1.903,2.147,��,2.3,�L
2014/12/01,03:20,1.972,3.523,3.850,3.500,3.660,1.242,1.903,2.147,��,2.2,��
2014/12/01,03:30,1.970,3.528,3.850,3.500,3.662,1.238,1.903,2.145,��,1.5,��
2014/12/01,03:40,1.972,3.523,3.850,3.498,3.660,1.237,1.903,2.148,��,1.1,��
2014/12/01,03:50,1.972,3.527,3.850,3.500,3.662,1.242,1.902,2.148,��쓌,0.6,�L
2014/12/01,04:00,1.973,3.527,3.848,3.500,3.660,1.240,1.905,2.150,-,CALM,�L
2014/12/01,04:10,1.975,3.528,3.850,3.497,3.662,1.240,1.902,2.148,��쓌,0.6,�L
2014/12/01,04:20,1.972,3.523,3.847,3.495,3.663,1.240,1.903,2.148,-,CALM,�L
2014/12/01,04:30,1.970,3.527,3.842,3.497,3.660,1.238,1.902,2.148,��,0.6,�L
2014/12/01,04:40,1.970,3.525,3.842,3.495,3.662,1.240,1.902,2.148,��,0.6,�L
2014/12/01,04:50,1.972,3.525,3.850,3.498,3.660,1.238,1.902,2.148,-,CALM,�L
2014/12/01,05:00,1.972,3.525,3.847,3.497,3.660,1.237,1.902,2.147,-,CALM,�L
2014/12/01,05:10,1.970,3.522,3.845,3.495,3.660,1.237,1.902,2.147,-,CALM,�L
2014/12/01,05:20,1.972,3.520,3.847,3.493,3.653,1.237,1.900,2.145,-,CALM,�L
2014/12/01,05:30,1.967,3.513,3.838,3.492,3.643,1.240,1.903,2.143,-,CALM,�L
2014/12/01,05:40,1.968,3.507,3.832,3.490,3.638,1.238,1.898,2.147,-,CALM,�L
2014/12/01,05:50,1.958,3.478,3.807,3.478,3.622,1.237,1.897,2.143,-,CALM,�L
2014/12/01,06:00,1.952,3.453,3.790,3.462,3.593,1.233,1.890,2.137,�k�k��,1.0,�L
2014/12/01,06:10,1.950,3.445,3.785,3.455,3.590,1.233,1.892,2.133,�k�k��,1.6,�L
2014/12/01,06:20,1.947,3.437,3.777,3.448,3.585,1.233,1.890,2.133,�k�k��,1.6,�L
2014/12/01,06:30,1.942,3.440,3.773,3.442,3.577,1.235,1.888,2.133,�k,1.2,�L
2014/12/01,06:40,1.943,3.442,3.773,3.437,3.578,1.232,1.888,2.135,�k,1.3,�L
2014/12/01,06:50,1.947,3.442,3.775,3.435,3.573,1.230,1.888,2.133,�k�k��,0.9,�L
2014/12/01,07:00,1.947,3.442,3.772,3.438,3.575,1.230,1.888,2.135,�k,1.5,�L
2014/12/01,07:10,1.945,3.450,3.773,3.438,3.573,1.228,1.888,2.132,�k�k��,0.9,�L
2014/12/01,07:20,1.945,3.452,3.777,3.438,3.577,1.228,1.888,2.132,�k�k��,1.1,�L
2014/12/01,07:30,1.945,3.448,3.775,3.437,3.577,1.232,1.888,2.132,�k�k��,0.9,�L
2014/12/01,07:40,1.942,3.445,3.765,3.432,3.567,1.228,1.883,2.130,�k��,1.8,�L
2014/12/01,07:50,1.933,3.432,3.760,3.423,3.555,1.225,1.883,2.127,�k��,1.9,�L
2014/12/01,08:00,1.935,3.433,3.760,3.418,3.555,1.225,1.882,2.125,���k��,1.4,�L
2014/12/01,08:10,1.938,3.433,3.758,3.420,3.552,1.225,1.882,2.127,�k��,1.4,��
2014/12/01,08:20,1.937,3.440,3.770,3.427,3.558,1.225,1.885,2.125,�k�k��,1.2,��
2014/12/01,08:30,1.937,3.447,3.772,3.430,3.567,1.225,1.887,2.128,�k�k��,1.0,��
2014/12/01,08:40,1.940,3.450,3.773,3.435,3.565,1.225,1.887,2.132,�k�k��,0.6,��
2014/12/01,08:50,1.942,3.460,3.782,3.440,3.573,1.227,1.885,2.132,-,CALM,��
2014/12/01,09:00,1.947,3.462,3.787,3.438,3.587,1.225,1.890,2.132,��,1.1,��
2014/12/01,09:10,1.947,3.467,3.787,3.443,3.587,1.227,1.893,2.132,-,CALM,��
2014/12/01,09:20,1.950,3.472,3.790,3.442,3.592,1.225,1.892,2.132,��,1.4,��
2014/12/01,09:30,1.947,3.470,3.792,3.447,3.598,1.227,1.890,2.133,���쓌,1.3,�L
2014/12/01,09:40,1.945,3.475,3.800,3.447,3.597,1.227,1.890,2.133,���쓌,1.2,�L
2014/12/01,09:50,1.945,3.477,3.802,3.450,3.602,1.227,1.890,2.133,���쓌,1.2,��
2014/12/01,10:00,1.943,3.477,3.802,3.450,3.602,1.227,1.890,2.133,�쓌,2.1,��
2014/12/01,10:10,1.945,3.480,3.800,3.453,3.607,1.228,1.893,2.137,�쓌,1.5,�L
2014/12/01,10:20,1.948,3.483,3.808,3.453,3.608,1.228,1.892,2.133,�쓌,2.1,�L
2014/12/01,10:30,1.948,3.483,3.807,3.455,3.608,1.228,1.893,2.133,��쓌,2.5,�L
2014/12/01,10:40,1.953,3.482,3.808,3.452,3.607,1.228,1.892,2.135,��,3.0,�L
2014/12/01,10:50,1.948,3.483,3.803,3.450,3.607,1.228,1.892,2.133,��,3.7,�L
2014/12/01,11:00,1.943,3.477,3.803,3.452,3.602,1.230,1.893,2.135,��,4.8,�L
2014/12/01,11:10,1.943,3.475,3.798,3.457,3.605,1.230,1.892,2.135,��,5.3,�L
2014/12/01,11:20,1.935,3.470,3.800,3.452,3.602,1.230,1.892,2.132,��,6.0,�L
2014/12/01,11:30,1.935,3.467,3.790,3.450,3.592,1.230,1.892,2.133,��,6.7,�L
2014/12/01,11:40,1.938,3.452,3.778,3.438,3.575,1.228,1.888,2.128,��,7.8,�L
2014/12/01,11:50,1.940,3.443,3.773,3.435,3.568,1.232,1.887,2.132,��,7.5,�L
2014/12/01,12:00,1.942,3.450,3.778,3.438,3.570,1.230,1.888,2.132,��,6.4,�L
2014/12/01,12:10,1.940,3.443,3.773,3.435,3.567,1.228,1.888,2.125,��,4.4,�L
2014/12/01,12:20,1.942,3.430,3.762,3.427,3.552,1.230,1.882,2.125,��,5.5,�L
2014/12/01,12:30,-,3.418,3.748,3.417,3.537,1.227,1.882,2.125,��,5.2,�L
2014/12/01,12:40,1.937,3.415,3.750,3.415,3.538,1.232,1.883,2.127,��,7.8,��
2014/12/01,12:50,1.940,3.425,3.763,3.420,3.550,1.232,1.885,2.125,��,7.7,��
2014/12/01,13:00,1.947,3.438,3.773,3.428,3.562,1.232,1.888,2.127,��,7.5,��
2014/12/01,13:10,1.942,3.443,3.782,3.433,3.562,1.228,1.887,2.128,��,6.8,��
2014/12/01,13:20,1.945,3.455,3.787,3.437,3.572,1.228,1.888,2.132,��,6.6,��
2014/12/01,13:30,1.947,3.452,3.787,3.432,3.572,1.230,1.890,2.132,��,6.0,�L
2014/12/01,13:40,1.947,3.458,3.788,3.438,3.573,1.230,1.888,2.133,��,6.0,�L
2014/12/01,13:50,-,3.463,3.790,3.443,3.573,1.232,1.888,2.130,��,6.5,�L
2014/12/01,14:00,-,3.460,3.793,3.448,3.575,1.232,1.892,2.130,��,5.3,�L
2014/12/01,14:10,1.952,3.460,3.792,3.445,3.582,1.228,1.892,2.130,��,6.3,��
2014/12/01,14:20,1.953,3.453,3.797,3.443,3.585,1.228,1.890,2.135,��,5.6,��
2014/12/01,14:30,1.955,-,3.800,3.443,3.585,1.228,1.892,2.133,��,5.1,��
2014/12/01,14:40,1.953,3.457,3.798,3.443,3.590,1.228,1.888,2.132,��쐼,2.2,�L
2014/12/01,14:50,1.953,3.468,3.800,3.447,3.597,1.232,1.892,2.133,�쐼,1.5,�L
2014/12/01,15:00,1.955,3.467,3.805,3.453,3.595,1.232,1.890,2.133,���k��,2.0,��
2014/12/01,15:10,1.955,3.467,3.812,3.450,3.595,1.230,1.895,2.133,���k��,3.8,��
2014/12/01,15:20,1.953,3.465,3.812,3.453,3.598,1.232,1.893,2.135,��,3.8,�L
2014/12/01,15:30,1.958,-,3.810,3.450,3.595,1.233,1.897,2.133,��,6.5,��
2014/12/01,15:40,1.960,-,3.812,3.453,3.600,1.235,1.892,2.133,���쐼,5.4,��
2014/12/01,15:50,1.963,3.462,3.815,3.458,3.602,1.235,1.895,2.133,���쐼,5.4,��
2014/12/01,16:00,1.963,3.477,3.812,3.457,3.602,1.237,1.895,2.133,���쐼,5.8,�L
2014/12/01,16:10,1.960,3.483,3.813,3.455,3.610,1.235,1.895,2.132,��,6.0,��
2014/12/01,16:20,1.960,3.492,3.813,3.457,3.608,1.238,1.898,2.135,��,7.9,��
2014/12/01,16:30,1.962,3.492,3.818,3.465,3.610,1.237,1.897,2.135,��,8.2,��
2014/12/01,16:40,1.962,3.493,3.817,3.465,3.613,1.238,1.900,2.137,��,9.7,��
2014/12/01,16:50,1.965,3.492,3.818,3.470,3.612,1.237,1.897,2.137,��,5.6,��
2014/12/01,17:00,1.963,3.495,3.823,3.465,3.615,1.238,1.898,2.135,���k��,3.6,�L
2014/12/01,17:10,1.967,3.497,3.828,3.472,3.615,1.243,1.900,2.142,���k��,5.3,�L
2014/12/01,17:20,1.968,3.498,3.822,3.475,3.617,1.240,1.902,2.138,�k��,4.6,�L
2014/12/01,17:30,1.967,3.497,3.827,3.472,3.618,1.240,1.900,2.138,�k��,6.1,�L
2014/12/01,17:40,1.967,3.495,3.827,3.472,3.615,1.240,1.898,2.140,�k��,5.7,�L
2014/12/01,17:50,1.970,3.493,3.822,3.473,3.615,1.243,1.900,2.138,�k��,7.4,�L
2014/12/01,18:00,1.968,3.498,3.827,3.480,3.618,1.243,1.900,2.140,���k��,8.8,��
2014/12/01,18:10,1.968,3.497,3.828,3.478,3.622,1.243,1.900,2.140,���k��,7.4,��
2014/12/01,18:20,1.968,3.500,3.825,3.477,3.622,1.243,1.900,2.142,�k��,7.4,��
2014/12/01,18:30,1.968,3.497,3.825,3.477,3.620,1.243,1.903,2.140,�k��,6.4,�L
2014/12/01,18:40,1.967,3.503,3.825,3.478,3.623,1.247,1.902,2.142,�k��,6.3,�L
2014/12/01,18:50,1.968,3.498,3.827,3.490,3.618,1.248,1.903,2.142,�k��,6.5,�L
2014/12/01,19:00,1.975,3.498,3.825,3.485,3.623,1.250,1.900,2.143,�k��,7.5,�L
2014/12/01,19:10,1.970,3.497,3.828,3.483,3.620,1.250,1.903,2.143,�k��,7.5,��
2014/12/01,19:20,1.973,3.505,3.828,3.485,3.622,1.252,1.902,2.143,�k��,6.0,��
2014/12/01,19:30,1.973,3.505,3.825,3.487,3.625,1.247,1.902,2.140,�k��,7.9,��
2014/12/01,19:40,1.975,3.502,3.827,3.485,3.623,1.243,1.903,2.142,�k��,8.3,��
2014/12/01,19:50,1.972,3.505,3.832,3.487,3.623,1.243,1.903,2.142,���k��,7.1,��
2014/12/01,20:00,1.970,3.503,3.830,3.485,3.623,1.247,1.900,2.142,�k��,8.5,��
2014/12/01,20:10,1.967,3.505,3.827,3.485,3.623,1.242,1.902,2.143,���k��,6.8,��
2014/12/01,20:20,1.970,3.502,3.823,3.485,3.625,1.242,1.900,2.145,�k��,7.1,��
2014/12/01,20:30,1.972,3.505,3.827,3.485,3.622,1.242,1.903,2.142,�k��,6.0,��
2014/12/01,20:40,1.970,3.507,3.832,3.487,3.622,1.242,1.902,2.140,�k��,6.4,��
2014/12/01,20:50,1.970,3.505,3.830,3.492,3.627,1.238,1.900,2.143,�k��,6.1,��
2014/12/01,21:00,1.970,3.503,3.835,3.493,3.627,1.240,1.903,2.147,���k��,7.2,��
2014/12/01,21:10,1.968,3.508,3.833,3.487,3.625,1.240,1.900,2.142,�k��,3.8,��
2014/12/01,21:20,1.967,3.508,3.833,3.490,3.622,1.240,1.903,2.142,�k�k��,4.0,��
2014/12/01,21:30,1.967,3.503,3.832,3.490,3.627,1.240,1.903,2.147,�k�k��,3.3,��
2014/12/01,21:40,1.968,3.507,3.832,3.490,3.623,1.240,1.902,2.145,�k�k��,3.3,��
2014/12/01,21:50,1.968,3.507,3.833,3.485,3.628,1.240,1.903,2.143,�k��,2.2,��
2014/12/01,22:00,1.970,3.507,3.833,3.485,3.628,1.240,1.900,2.145,�k,1.0,��
2014/12/01,22:10,1.970,3.510,3.840,3.488,3.632,1.238,1.905,2.143,�k��,3.3,��
2014/12/01,22:20,1.970,3.515,3.837,3.492,3.632,1.240,1.902,2.145,���k��,5.1,��
2014/12/01,22:30,1.970,3.515,3.833,3.492,3.640,1.238,1.902,2.143,���k��,6.8,��
2014/12/01,22:40,1.972,3.515,3.838,3.493,3.635,1.237,1.902,2.143,���k��,9.3,��
2014/12/01,22:50,1.970,3.520,3.838,3.492,3.638,1.238,1.902,2.145,���k��,8.3,��
2014/12/01,23:00,1.970,3.517,3.838,3.492,3.640,1.237,1.903,2.147,���k��,7.2,��
2014/12/01,23:10,1.972,3.517,3.843,3.497,3.643,1.237,1.903,2.147,���k��,7.7,��
2014/12/01,23:20,1.973,3.520,3.843,3.498,3.640,1.240,1.903,2.148,�k��,6.8,��
2014/12/01,23:30,1.968,3.520,3.843,3.493,3.640,1.235,1.903,2.150,���k��,7.4,��
2014/12/01,23:40,1.968,3.520,3.845,3.493,3.645,1.237,1.905,2.145,�k��,7.1,��
2014/12/01,23:50,1.972,3.520,3.848,3.497,3.645,1.238,1.903,2.148,�k��,5.6,��
